This is the latest recevied weather packets stored in our database for station/object KF7SOJ. If no packets are shown the sender has not sent any weather packets the latest 10 day(s).
| Time | Temp. | Humidity | Pressure | Rain* | Wind** | Luminosity | Snow |
|---|---|---|---|---|---|---|---|
| 1777497829 | 13.33° C | 32% | 936.8 hPa | 0 mm | - | 172 W/m² | - |
| 1777497525 | 13.33° C | 33% | 936.6 hPa | 0 mm | - | 189 W/m² | - |
| 1777497221 | 13.89° C | 30% | 936.7 hPa | 0 mm | - | 206 W/m² | - |
| 1777496918 | 14.44° C | 30% | 936.5 hPa | 0 mm | - | 296 W/m² | - |
| 1777496615 | 13.89° C | 34% | 936.8 hPa | 0 mm | - | 984 W/m² | - |
| 1777496311 | 13.33° C | 34% | 936.8 hPa | 0 mm | - | 936 W/m² | - |
| 1777496007 | 13.33° C | 32% | 936.7 hPa | 0 mm | - | 252 W/m² | - |
| 1777495704 | 13.33° C | 34% | 936.9 hPa | 0 mm | - | 318 W/m² | - |
| 1777495400 | 13.33° C | 34% | 936.7 hPa | 0 mm | - | 296 W/m² | - |
| 1777495096 | 13.89° C | 37% | 936.6 hPa | 0 mm | - | 1033 W/m² | - |
| 1777494794 | 13.89° C | 31% | 936.6 hPa | 0 mm | - | 230 W/m² | - |
| 1777494491 | 13.89° C | 35% | 936.5 hPa | 0 mm | - | 706 W/m² | - |
| 1777494188 | 13.33° C | 35% | 936.7 hPa | 0 mm | - | 250 W/m² | - |
| 1777493885 | 13.89° C | 32% | 936.7 hPa | 0 mm | - | 285 W/m² | - |
| 1777493583 | 13.89° C | 34% | 936.7 hPa | 0 mm | - | 355 W/m² | - |
| 1777493281 | 13.89° C | 33% | 936.5 hPa | 0 mm | - | 1081 W/m² | - |
| 1777492976 | 13.89° C | 34% | 936.6 hPa | 0 mm | - | 989 W/m² | - |
| 1777492674 | 13.89° C | 33% | 936.6 hPa | 0 mm | - | 996 W/m² | - |
| 1777492373 | 13.89° C | 34% | 936.6 hPa | 0 mm | - | 1111 W/m² | - |
| 1777492071 | 15° C | 34% | 936.5 hPa | 0 mm | - | 554 W/m² | - |
| 1777491767 | 13.89° C | 38% | 936.6 hPa | 0 mm | - | 1072 W/m² | - |
| 1777491464 | 13.33° C | 36% | 936.6 hPa | 0 mm | - | 1035 W/m² | - |
| 1777491162 | 12.22° C | 38% | 936.6 hPa | 0 mm | - | 690 W/m² | - |
| 1777490857 | 12.78° C | 36% | 936.7 hPa | 0 mm | - | 182 W/m² | - |
| 1777490553 | 13.33° C | 35% | 936.7 hPa | 0 mm | - | 283 W/m² | - |
* Rain latest hour (hover to see other rain measurements)
** Current wind speed in m/s (hover to see current wind gust speed)